58P/Jackson-Neujmin (2012)

Japanese version
Home page
Total 6,336 html files since Dec. 4, 1995
Updated on July 7, 2007

---------------------------------------------------------------------

* Profile

* Orbital Elements

Perturbed ephemeris below is based on unperturbed elements from MPC 42666. 

 Epoch = 2456040.50000 TT   T = 2456027.51247 TT
 Peri. =  200.48797         a =     4.0736720 AU
 Node  =  160.63481 J2000.0 e =     0.6626044
 Incl. =   13.48976         q =     1.3744389 AU

* Finding Charts

* Magnitudes Graph

        m1 = 7.5 + 5 log d + 30 log r(t - 80)

---------------------------------------------------------------------

The orbital elements are calculated using the Minor Planet & Comet Ephemeris Service.
The charts are made with StellaNavigator Ver.2.0 for Windows (AstroArts / ASCII).
The magnitudes graphs are made with Comet for Windows.

---------------------------------------------------------------------

Copyright(C) 1995-2008 Seiichi Yoshida (comet@aerith.net). All rights reserved.